星链-37660(STARLINK-37660)

导读

STARLINK-37660(NORAD编号69132)是SpaceX星链(Starlink)星座中的一颗低轨互联网通信卫星。作为星链项目的组成部分,它旨在为全球提供高速、低延迟的太空互联网覆盖服务,尤其服务于偏远地区和网络基础设施薄弱区域。作为低地球轨道卫星,运行在约550公里高度,采用SpaceX设计的卫星平台,配备相控阵天线和激光星间链路技术,保障全球网络无缝连接。目前仍在轨正常运行,参与星链星座扩容,推动全球互联网普及计划,持续为用户提供稳定的宽带服务。

基本信息
目录编号:
69132
目录名称:
STARLINK-37660
国际标识:
2026-110J
轨道中心:
EARTH
卫星名称:
星链-37660
卫星全名:
星链-37660(STARLINK-37660)
卫星状态:
在轨 (已飞行115 天)
发射日期:
2026-05-20 UTC
国别 :
美国 (US)
星等 :
--
该卫星已列入 空间交会检测服务 Space Conjunction Data Service (SCDS) ,当前飞行风险评估等级: 无高风险
轨道信息
数据来源 国际轨道数据 AOE轨道数据
星历时间 2026-09-12T09:47:28+0800
12小时前
查看轨道信息
2026-09-07T02:00:00+0800
5天前
查看轨道信息
半长轴 6843.669km 6843.696km
偏心率 0.0001745 0.0001504
轨道倾角 97.284° 97.284°
近地点辐角 67.225° 93.692°
升交点赤经 90.229° 84.984°
平近点角 292.918° 51.578°
近地点 464.337km 464.529km
远地点 466.727km 466.589km
周期 93.906分钟 93.907分钟
每日圈数 15.334488 15.3344
详细信息
固有亮度:
5
最大亮度:
2.5
卫星平台:
Starlink V1.0
覆盖范围:
全球
运营商:
太空探索技术公司
运营商所在国:
美国
制造商(研发单位):
太空探索技术公司
制造商所在国:
美国
使用方式:
暂无
卫星简介
Starlink 计划是 SpaceX 推出的全球卫星互联网项目,通过发射低轨道卫星,为全球尤其是偏远地区提供高速、低延迟的互联网服务。自 2019 年起,Starlink 已部署数千颗卫星,旨在缩小全球数字鸿沟,推动互联网普及。该项目还为军事、航空等行业提供通信支持,带来广泛经济效益。
2D轨道图
3D轨道图
轨道高度分析图
轨道倾角分析图
轨道综合分析图
查看轨道综合分析图
交会数据列表
事件ID 空间交会对象 最接近时刻(TCA) 交会距离 交会风险概率(CRP) 交会风险指数(CRI) 操作
CDM_260914-200205-322606-913221
2026-09-14T
20:02:23+0000
0.667 km
远距离
9.581134E-5 中风险 0.75
CDM_260914-182805-322606-913221
2026-09-14T
18:28:25+0000
1.068 km
极远距离
2.104007E-5 中风险 0.61
CDM_260914-213605-322606-913221
2026-09-14T
21:36:21+0000
1.478 km
极远距离
6.866852E-6 低风险 0.52
CDM_260914-165405-322606-913221
2026-09-14T
16:54:28+0000
2.038 km
极远距离
2.663541E-6 低风险 0.44
CDM_260913-131504-856806-913222
2026-09-13T
13:15:14+0000
2.974 km
极远距离
1.25786E-6 低风险 0.37
CDM_260912-030805-384906-913221
2026-09-12T
03:08:10+0000
2.946 km
极远距离
1.087236E-6 低风险 0.36
CDM_260912-225106-547406-913221
2026-09-12T
22:51:04+0000
2.849 km
极远距离
8.641287E-7 极低风险 0.34
与全量物体交会距离演化趋势
与全量物体交会风险概率演化趋势